This is the latest recevied weather packets stored in our database for station/object SP3SWJ-13. If no packets are shown the sender has not sent any weather packets the latest 10 day(s).
| Time | Temp. | Humidity | Pressure | Rain* | Wind** | Luminosity | Snow |
|---|---|---|---|---|---|---|---|
| 1777652297 | 24.44° C | 27% | 1015.5 hPa | - | - | 117 W/m² | - |
| 1777651996 | 24.44° C | 26% | 1015.5 hPa | - | - | 130 W/m² | - |
| 1777651695 | 24.44° C | 27% | 1015.5 hPa | - | - | 142 W/m² | - |
| 1777651394 | 24.44° C | 27% | 1015.6 hPa | - | - | 153 W/m² | - |
| 1777651093 | 24.44° C | 26% | 1015.6 hPa | - | - | 165 W/m² | - |
| 1777650793 | 25.56° C | 26% | 1015.7 hPa | - | - | 178 W/m² | - |
| 1777650492 | 25° C | 25% | 1015.7 hPa | - | - | 190 W/m² | - |
| 1777650191 | 24.44° C | 26% | 1015.7 hPa | - | - | 202 W/m² | - |
| 1777649890 | 24.44° C | 27% | 1015.8 hPa | - | - | 215 W/m² | - |
| 1777649589 | 23.89° C | 26% | 1015.8 hPa | - | - | 228 W/m² | - |
| 1777649288 | 23.89° C | 27% | 1015.8 hPa | - | - | 239 W/m² | - |
| 1777648987 | 25° C | 25% | 1015.8 hPa | - | - | 253 W/m² | - |
| 1777648686 | 25° C | 26% | 1015.9 hPa | - | - | 269 W/m² | - |
| 1777648386 | 24.44° C | 25% | 1015.9 hPa | - | - | 282 W/m² | - |
| 1777648085 | 23.89° C | 25% | 1015.9 hPa | - | - | 296 W/m² | - |
| 1777647784 | 23.33° C | 27% | 1016 hPa | - | - | 309 W/m² | - |
| 1777647483 | 25° C | 25% | 1016 hPa | - | - | 322 W/m² | - |
| 1777647183 | 24.44° C | 26% | 1016 hPa | - | - | 334 W/m² | - |
| 1777646882 | 25° C | 25% | 1016.1 hPa | - | - | 348 W/m² | - |
| 1777646581 | 24.44° C | 25% | 1016.1 hPa | - | - | 360 W/m² | - |
| 1777646280 | 24.44° C | 26% | 1016.1 hPa | - | - | 374 W/m² | - |
| 1777645979 | 25° C | 25% | 1016.2 hPa | - | - | 385 W/m² | - |
| 1777645678 | 24.44° C | 25% | 1016.2 hPa | - | - | 404 W/m² | - |
| 1777645377 | 23.89° C | 26% | 1016.2 hPa | - | - | 418 W/m² | - |
| 1777645077 | 23.33° C | 26% | 1016.1 hPa | - | - | 431 W/m² | - |
* Rain since midnight (hover to see other rain measurements)
** Current wind speed in m/s (hover to see current wind gust speed)